Погода в Бхаратпуре

Непал     27°40′20″N   84°26′46″E
темп.,
°C
ветер,
м/с
пор.,
м/с
влажн.,
%
обл.,
%
осадки,
мм/ч
давл.,
гПа
погр.,
м
10 мая, пн
пн1023:45+19ссв23891 0.3 100862
02:45+19ссв229038 0.9 100745
05:45+18ссв22895 3.1 100843
08:45+27с12542 0.1 1009527
11:45+32юз24336 0.1 10062175
14:45+32зюз3332100 0.0 10032928
17:45+20с4687100 4.9 1006258
20:45+20с3486100 0.0 100591
11 мая, вт
вт1123:45+20ссв228189 0.1 100632
02:45+20ссв228039 0.6 100528
05:45+20ссв217898 1.6 100618
08:45+26всв115350 0.1 1007333
11:45+32ююз223626 0.1 10051842
14:45+32ю2434100 0.0 10012428
17:45+20ссв5889100 6.4 1004282
20:45+20ссв3589100 0.1 1004134
12 мая, ср
ср1223:45+19ссв229299 1.2 100539
02:45+19ссв3391100 2.6 100463
05:45+19с0093100 8.1 100622
08:45+24вюв116855 1.2 1007403
11:45+32юз114014 1.2 10051663
14:45+29ююв2252100 0.5 10031417
17:45+21ссв3590100 19.3 1004165
20:45+19в1191100 2.8 100629
13 мая, чт
чт1323:45+19с2290100 3.4 100563
02:45+19ссз2293100 2.1 100668
05:45+19св4692100 4.7 1005219
08:45+24с126698 0.0 1008507
11:45+23ссв2367100 0.1 1007300
14:45+29св224094 0.1 1003763
17:45+27ссз1150100 0.2 100111
20:45+20зюз1187100 4.2 100528
14 мая, пт
пт1423:45+20ссв3494100 8.6 1005164
02:45+20ссв2290100 0.0 100541
05:45+20св118545 1.4 100613
08:45+25вюв11655 1.3 1007657
11:45+29ююз324658 1.4 10061923
14:45+27ююз345869 0.8 1004750
17:45+24ссв237276 5.6 100478
20:45+20св338725 2.4 100547